Tracking 19909 objects as of 22-Oct-2019
HD Live streaming from Space Station
objects crossing your sky now

DELTA 1 DEB

Track DELTA 1 DEB now!
10-day predictions


NORAD ID: 7014
Int'l Code: 1973-086E
Perigee: 875.8 km
Apogee: 1,488.0 km
Inclination: 101.7 °
Period: 108.9 minutes
Semi major axis: 7552 km
RCS: 0.109 m2 (medium)
Launch date: November 6, 1973
Source: United States (US)
Launch site: AIR FORCE WESTERN TEST RANGE (AFWTR)

Note: This is SATELLITE DEBRIS
aabbcc
Your satellite tracking list
Your tracking list is empty




NASA's NSSDC Master Catalog

Two Line Element Set (TLE):
1  7014U 73086E   19295.48768612  .00000005  00000-0  93653-4 0  9999
2  7014 101.6817  29.7437 0405240 224.1982 132.6088 13.22614298215254
Source of the keplerian elements: AFSPC